TimePST,TemperatureF,Dew PointF,Humidity,Sea Level PressureIn,VisibilityMPH,Wind Direction,Wind SpeedMPH,Gust SpeedMPH,PrecipitationIn,Events,Conditions,WindDirDegrees,DateUTC
12:53 AM,48.9,46.0,90,30.23,10.0,Calm,Calm,-,N/A,,Clear,0,2013-02-15 08:53:00
1:53 AM,48.9,46.9,93,30.24,10.0,Calm,Calm,-,N/A,,Clear,0,2013-02-15 09:53:00
2:53 AM,48.9,48.9,100,30.23,10.0,Calm,Calm,-,N/A,,Clear,0,2013-02-15 10:53:00
3:53 AM,51.1,50.0,96,30.22,10.0,Calm,Calm,-,N/A,,Clear,0,2013-02-15 11:53:00
4:53 AM,52.0,48.0,86,30.23,10.0,South,4.6,-,N/A,,Clear,190,2013-02-15 12:53:00
5:53 AM,50.0,45.0,83,30.23,10.0,Calm,Calm,-,N/A,,Clear,0,2013-02-15 13:53:00
6:53 AM,51.1,46.0,83,30.25,10.0,Calm,Calm,-,N/A,,Clear,0,2013-02-15 14:53:00
7:53 AM,54.0,54.0,100,30.26,10.0,SSW,3.5,-,N/A,,Clear,210,2013-02-15 15:53:00
8:53 AM,55.9,52.0,87,30.28,10.0,SSE,10.4,-,N/A,,Clear,150,2013-02-15 16:53:00
9:53 AM,61.0,48.0,62,30.28,10.0,SE,8.1,-,N/A,,Clear,140,2013-02-15 17:53:00
10:53 AM,60.1,52.0,75,30.29,10.0,SSW,4.6,-,N/A,,Clear,200,2013-02-15 18:53:00
11:53 AM,62.1,48.0,60,30.28,10.0,West,5.8,-,N/A,,Clear,260,2013-02-15 19:53:00
12:53 PM,64.9,43.0,45,30.26,10.0,West,5.8,-,N/A,,Clear,260,2013-02-15 20:53:00
1:53 PM,66.9,41.0,39,30.24,10.0,WSW,5.8,-,N/A,,Clear,250,2013-02-15 21:53:00
2:53 PM,66.9,42.1,40,30.23,10.0,West,6.9,-,N/A,,Clear,270,2013-02-15 22:53:00
3:53 PM,69.1,46.0,44,30.23,10.0,WNW,5.8,-,N/A,,Clear,290,2013-02-15 23:53:00
4:53 PM,68.0,44.1,42,30.22,10.0,WNW,9.2,-,N/A,,Partly Cloudy,300,2013-02-16 00:53:00
5:53 PM,66.0,44.1,45,30.22,10.0,Calm,Calm,-,N/A,,Partly Cloudy,0,2013-02-16 01:53:00
6:53 PM,64.9,42.1,43,30.23,10.0,Calm,Calm,-,N/A,,Clear,0,2013-02-16 02:53:00
7:53 PM,60.1,46.0,60,30.24,10.0,East,3.5,-,N/A,,Clear,100,2013-02-16 03:53:00
8:53 PM,57.9,46.0,65,30.25,10.0,Calm,Calm,-,N/A,,Clear,0,2013-02-16 04:53:00
9:53 PM,55.9,46.9,72,30.25,10.0,NNE,4.6,-,N/A,,Clear,20,2013-02-16 05:53:00
10:53 PM,54.0,48.0,80,30.25,10.0,Calm,Calm,-,N/A,,Partly Cloudy,0,2013-02-16 06:53:00
11:53 PM,55.0,48.0,77,30.25,10.0,SSW,3.5,-,N/A,,Partly Cloudy,210,2013-02-16 07:53:00